When you browse on this site, cookies collect data to enhance your experience and personalize the content and advertising you see.
Visit our Privacy Policy to learn more. By continuing to use the site, you agree to this use of cookies and data.
  • en Belgique
  • Liste des pays
  • À 7 jours
  • Température de l'eau
  • Carte météo
  • Widgets météo
  • user-avatar
    Se connecter

    Météo par heure à Odongk

    Ce jour, 20 Novembre, Mercredi

    Heure Température Précipitation Vent Pression Humidité
    00:00 +25°C° 0 mm 2 m/s 757 mmHg 73%
    01:00 +24°C° 0 mm 2 m/s 757 mmHg 76%
    02:00 +24°C° 0 mm 2 m/s 756 mmHg 76%
    03:00 +23°C° 0 mm 2 m/s 756 mmHg 75%
    04:00 +23°C° 0 mm 2 m/s 756 mmHg 75%
    05:00 +22°C° 0 mm 3 m/s 756 mmHg 76%
    06:00 +22°C° 0 mm 3 m/s 757 mmHg 78%
    07:00 +22°C° 0 mm 3 m/s 758 mmHg 82%
    08:00 +25°C° 0 mm 4 m/s 758 mmHg 76%
    09:00 +27°C° 0 mm 4 m/s 758 mmHg 71%
    10:00 +29°C° 0 mm 5 m/s 758 mmHg 66%
    11:00 +30°C° 0 mm 5 m/s 758 mmHg 63%
    12:00 +32°C° 0 mm 5 m/s 757 mmHg 61%
    13:00 +33°C° 0 mm 5 m/s 756 mmHg 60%
    14:00 +33°C° 0 mm 5 m/s 756 mmHg 62%
    15:00 +32°C° 0 mm 4 m/s 755 mmHg 64%
    16:00 +32°C° 0 mm 4 m/s 755 mmHg 66%
    17:00 +30°C° 0 mm 4 m/s 755 mmHg 70%
    18:00 +29°C° 0 mm 3 m/s 756 mmHg 74%
    19:00 +27°C° 0 mm 2 m/s 756 mmHg 78%
    20:00 +27°C° 0 mm 3 m/s 756 mmHg 79%
    21:00 +26°C° 0 mm 3 m/s 757 mmHg 80%
    22:00 +26°C° 0 mm 3 m/s 757 mmHg 82%
    23:00 +25°C° 0 mm 3 m/s 757 mmHg 83%

    Demain, 21 Novembre, Jeudi

    Heure Température Précipitation Vent Pression Humidité
    00:00 +25°C° 0 mm 3 m/s 757 mmHg 84%
    01:00 +25°C° 0 mm 3 m/s 757 mmHg 85%
    02:00 +24°C° 0 mm 3 m/s 757 mmHg 85%
    03:00 +24°C° 0 mm 3 m/s 756 mmHg 85%
    04:00 +22°C° 0 mm 3 m/s 756 mmHg 85%
    05:00 +22°C° 0 mm 3 m/s 757 mmHg 85%
    06:00 +22°C° 0 mm 3 m/s 757 mmHg 85%
    07:00 +24°C° 0 mm 3 m/s 757 mmHg 84%
    08:00 +25°C° 0 mm 4 m/s 758 mmHg 78%
    09:00 +27°C° 0 mm 5 m/s 758 mmHg 72%
    10:00 +29°C° 0 mm 6 m/s 758 mmHg 65%
    11:00 +30°C° 0 mm 6 m/s 758 mmHg 63%
    12:00 +32°C° 0 mm 6 m/s 757 mmHg 60%
    13:00 +32°C° 0 mm 5 m/s 756 mmHg 57%
    14:00 +32°C° 0 mm 5 m/s 756 mmHg 58%
    15:00 +32°C° 0 mm 4 m/s 756 mmHg 59%
    16:00 +32°C° 0 mm 4 m/s 755 mmHg 60%
    17:00 +30°C° 0 mm 4 m/s 755 mmHg 64%
    18:00 +28°C° 0 mm 3 m/s 756 mmHg 69%
    19:00 +27°C° 0 mm 3 m/s 756 mmHg 73%
    20:00 +26°C° 0 mm 3 m/s 756 mmHg 73%
    21:00 +26°C° 0 mm 2 m/s 757 mmHg 74%
    22:00 +26°C° 0 mm 2 m/s 757 mmHg 75%
    23:00 +25°C° 0 mm 2 m/s 757 mmHg 75%

    Après-demain, 22 Novembre, Vendredi

    Heure Température Précipitation Vent Pression Humidité
    00:00 +25°C° 0 mm 2 m/s 757 mmHg 76%
    01:00 +25°C° 0 mm 3 m/s 757 mmHg 77%
    02:00 +25°C° 0 mm 3 m/s 757 mmHg 78%
    03:00 +24°C° 0 mm 3 m/s 756 mmHg 80%
    04:00 +23°C° 0 mm 4 m/s 756 mmHg 81%
    05:00 +23°C° 0 mm 4 m/s 757 mmHg 81%
    06:00 +23°C° 0 mm 4 m/s 757 mmHg 82%
    07:00 +23°C° 0 mm 4 m/s 758 mmHg 83%
    08:00 +26°C° 0 mm 4 m/s 758 mmHg 77%
    09:00 +28°C° 0 mm 5 m/s 758 mmHg 70%
    10:00 +30°C° 0 mm 6 m/s 758 mmHg 64%
    11:00 +30°C° 0 mm 6 m/s 757 mmHg 61%
    12:00 +32°C° 0 mm 5 m/s 757 mmHg 59%
    13:00 +33°C° 0 mm 5 m/s 756 mmHg 56%
    14:00 +33°C° 0 mm 5 m/s 755 mmHg 57%
    15:00 +33°C° 0 mm 4 m/s 755 mmHg 58%
    16:00 +33°C° 0 mm 3 m/s 754 mmHg 59%
    17:00 +30°C° 0 mm 3 m/s 755 mmHg 63%
    18:00 +29°C° 0 mm 2 m/s 755 mmHg 68%
    19:00 +27°C° 0 mm 2 m/s 756 mmHg 72%
    20:00 +27°C° 0 mm 2 m/s 756 mmHg 73%
    21:00 +26°C° 0 mm 1 m/s 757 mmHg 75%
    22:00 +26°C° 0 mm 1 m/s 757 mmHg 77%
    23:00 +26°C° 0 mm 1 m/s 757 mmHg 77%

    23 Novembre, Samedi

    Heure Température Précipitation Vent Pression Humidité
    00:00 +26°C° 0 mm 2 m/s 757 mmHg 78%
    01:00 +25°C° 0 mm 2 m/s 756 mmHg 79%
    02:00 +25°C° 0 mm 2 m/s 756 mmHg 81%
    03:00 +24°C° 0 mm 2 m/s 756 mmHg 83%
    04:00 +24°C° 0 mm 2 m/s 756 mmHg 85%
    05:00 +24°C° 0 mm 2 m/s 756 mmHg 84%
    06:00 +24°C° 0 mm 3 m/s 757 mmHg 83%
    07:00 +24°C° 0 mm 3 m/s 757 mmHg 83%
    08:00 +25°C° 0 mm 3 m/s 757 mmHg 75%
    09:00 +27°C° 0 mm 3 m/s 758 mmHg 68%
    10:00 +29°C° 0 mm 4 m/s 758 mmHg 61%
    11:00 +30°C° 0 mm 4 m/s 757 mmHg 58%
    12:00 +32°C° 0 mm 4 m/s 757 mmHg 56%
    13:00 +33°C° 0 mm 4 m/s 756 mmHg 54%
    14:00 +32°C° 0 mm 4 m/s 755 mmHg 55%
    15:00 +31°C° 0 mm 3 m/s 755 mmHg 56%
    16:00 +31°C° 0 mm 3 m/s 755 mmHg 57%
    17:00 +30°C° 0 mm 2 m/s 755 mmHg 62%
    18:00 +28°C° 0 mm 2 m/s 756 mmHg 66%
    19:00 +27°C° 0 mm 1 m/s 756 mmHg 71%
    20:00 +26°C° 0 mm 1 m/s 757 mmHg 72%
    21:00 +26°C° 0 mm 1 m/s 757 mmHg 72%
    22:00 +26°C° 0 mm 1 m/s 757 mmHg 73%
    23:00 +25°C° 0 mm 1 m/s 757 mmHg 74%

    24 Novembre, Dimanche

    Heure Température Précipitation Vent Pression Humidité
    00:00 +25°C° 0 mm 1 m/s 757 mmHg 75%
    01:00 +25°C° 0 mm 1 m/s 756 mmHg 75%
    02:00 +24°C° 0 mm 1 m/s 756 mmHg 77%
    03:00 +24°C° 0 mm 1 m/s 756 mmHg 78%
    04:00 +24°C° 0 mm 1 m/s 756 mmHg 80%
    05:00 +24°C° 0 mm 2 m/s 756 mmHg 80%
    06:00 +24°C° 0 mm 2 m/s 757 mmHg 81%
    07:00 +24°C° 0 mm 2 m/s 757 mmHg 82%
    08:00 +26°C° 0 mm 2 m/s 757 mmHg 77%
    09:00 +27°C° 0 mm 3 m/s 757 mmHg 72%
    10:00 +29°C° 0 mm 4 m/s 758 mmHg 67%
    11:00 +30°C° 0 mm 4 m/s 757 mmHg 64%
    12:00 +32°C° 0 mm 4 m/s 756 mmHg 61%
    13:00 +33°C° 0 mm 4 m/s 755 mmHg 58%
    14:00 +33°C° 0 mm 3 m/s 755 mmHg 58%
    15:00 +33°C° 0 mm 3 m/s 755 mmHg 58%
    16:00 +32°C° 0 mm 2 m/s 754 mmHg 58%
    17:00 +30°C° 0 mm 2 m/s 755 mmHg 61%
    18:00 +29°C° 0 mm 1 m/s 755 mmHg 65%
    19:00 +27°C° 0 mm 1 m/s 756 mmHg 68%
    20:00 +27°C° 0 mm 1 m/s 756 mmHg 70%
    21:00 +27°C° 0 mm 1 m/s 757 mmHg 72%
    22:00 +26°C° 0 mm 2 m/s 757 mmHg 74%
    23:00 +26°C° 0 mm 2 m/s 757 mmHg 74%

    25 Novembre, Lundi

    Heure Température Précipitation Vent Pression Humidité
    00:00 +26°C° 0 mm 1 m/s 756 mmHg 75%
    01:00 +26°C° 0 mm 1 m/s 756 mmHg 76%
    02:00 +25°C° 0 mm 2 m/s 756 mmHg 77%
    03:00 +25°C° 0 mm 2 m/s 756 mmHg 79%
    04:00 +25°C° 0 mm 3 m/s 756 mmHg 80%
    05:00 +25°C° 0 mm 3 m/s 756 mmHg 81%
    06:00 +25°C° 0 mm 3 m/s 757 mmHg 82%
    07:00 +25°C° 0 mm 4 m/s 757 mmHg 83%
    08:00 +27°C° 0 mm 4 m/s 757 mmHg 78%
    09:00 +28°C° 0 mm 5 m/s 757 mmHg 72%
    10:00 +30°C° 0 mm 6 m/s 758 mmHg 67%
    11:00 +32°C° 0 mm 6 m/s 757 mmHg 64%
    12:00 +33°C° 0 mm 6 m/s 756 mmHg 61%
    13:00 +34°C° 0 mm 6 m/s 755 mmHg 58%
    14:00 +34°C° 0.1 mm 6 m/s 755 mmHg 59%
    15:00 +33°C° 0.1 mm 5 m/s 754 mmHg 61%
    16:00 +33°C° 0.1 mm 5 m/s 754 mmHg 62%
    17:00 +32°C° 0.1 mm 5 m/s 755 mmHg 66%
    18:00 +29°C° 0.1 mm 4 m/s 755 mmHg 71%
    19:00 +28°C° 0.1 mm 3 m/s 756 mmHg 76%
    20:00 +28°C° 0 mm 3 m/s 756 mmHg 77%
    21:00 +27°C° 0 mm 3 m/s 756 mmHg 78%
    22:00 +27°C° 0 mm 3 m/s 757 mmHg 79%
    23:00 +27°C° 0 mm 3 m/s 756 mmHg 79%
    Voir plus